| time (UTC) | temp F | wind direction | speed MPH | gust MPH | rain 1hr in | rain 24hr in | rain mn in | humidity % | barometer mb |
| 20260510185850 | 77 | 26 | 7.0 | 11.0 | 0.00 | 0.00 | 0.00 | 60 | 1016.5 |
| 20260510185348 | 77 | 56 | 10.0 | 10.0 | 0.00 | 0.00 | 0.00 | 60 | 1016.6 |
| 20260510184845 | 77 | 347 | 10.0 | 15.0 | 0.00 | 0.00 | 0.00 | 59 | 1016.5 |
| 20260510184342 | 77 | 349 | 7.0 | 11.0 | 0.00 | 0.00 | 0.00 | 59 | 1016.3 |
| 20260510183841 | 77 | 54 | 4.0 | 12.0 | 0.00 | 0.00 | 0.00 | 59 | 1016.2 |
| 20260510183338 | 78 | 30 | 7.0 | 9.0 | 0.00 | 0.00 | 0.00 | 59 | 1016.2 |
| 20260510182833 | 78 | 55 | 13.0 | 15.0 | 0.00 | 0.00 | 0.00 | 57 | 1016.1 |
| 20260510182330 | 77 | 36 | 4.0 | 13.0 | 0.00 | 0.00 | 0.00 | 62 | 1016.2 |
| 20260510181826 | 78 | 82 | 13.0 | 13.0 | 0.00 | 0.00 | 0.00 | 59 | 1016.2 |
| 20260510181323 | 78 | 4 | 3.0 | 12.0 | 0.00 | 0.00 | 0.00 | 59 | 1016.1 |
| 20260510180814 | 77 | 81 | 6.0 | 13.0 | 0.00 | 0.00 | 0.00 | 58 | 1016.2 |
| 20260510180311 | 78 | 97 | 8.0 | 12.0 | 0.00 | 0.00 | 0.00 | 59 | 1016.1 |
| 20260510175808 | 78 | 88 | 5.0 | 11.0 | 0.00 | 0.00 | 0.00 | 58 | 1015.9 |
| 20260510175306 | 78 | 27 | 4.0 | 10.0 | 0.00 | 0.00 | 0.00 | 55 | 1016.1 |
| 20260510174800 | 77 | 79 | 7.0 | 13.0 | 0.00 | 0.00 | 0.00 | 56 | 1016.1 |
| 20260510174258 | 77 | 24 | 5.0 | 11.0 | 0.00 | 0.00 | 0.00 | 55 | 1016.3 |
| 20260510173754 | 78 | 96 | 10.0 | 11.0 | 0.00 | 0.00 | 0.00 | 57 | 1016.1 |
| 20260510173250 | 78 | 36 | 9.0 | 13.0 | 0.00 | 0.00 | 0.00 | 54 | 1016.2 |
| 20260510172745 | 78 | 63 | 6.0 | 10.0 | 0.00 | 0.00 | 0.00 | 56 | 1016.0 |
| 20260510172241 | 78 | 60 | 13.0 | 15.0 | 0.00 | 0.00 | 0.00 | 53 | 1016.1 |
| 20260510171739 | 78 | 37 | 3.0 | 8.0 | 0.00 | 0.00 | 0.00 | 56 | 1016.2 |
| 20260510171236 | 79 | 52 | 7.0 | 8.0 | 0.00 | 0.00 | 0.00 | 55 | 1016.3 |
| 20260510170733 | 79 | 293 | 4.0 | 7.0 | 0.00 | 0.00 | 0.00 | 56 | 1016.3 |
| 20260510170229 | 78 | 59 | 7.0 | 9.0 | 0.00 | 0.00 | 0.00 | 57 | 1016.3 |
| 20260510165724 | 77 | 31 | 3.0 | 7.0 | 0.00 | 0.00 | 0.00 | 56 | 1016.3 |
| 20260510165221 | 79 | 340 | 6.0 | 10.0 | 0.00 | 0.00 | 0.00 | 55 | 1016.4 |
| 20260510164718 | 78 | 12 | 3.0 | 7.0 | 0.00 | 0.00 | 0.00 | 55 | 1016.5 |
| 20260510164216 | 79 | 275 | 5.0 | 6.0 | 0.00 | 0.00 | 0.00 | 54 | 1016.3 |
| 20260510163710 | 77 | 308 | 6.0 | 8.0 | 0.00 | 0.00 | 0.00 | 55 | 1016.6 |
| 20260510163206 | 77 | 38 | 4.0 | 10.0 | 0.00 | 0.00 | 0.00 | 54 | 1016.7 |
| 20260510162706 | 77 | 358 | 3.0 | 8.0 | 0.00 | 0.00 | 0.00 | 56 | 1016.6 |
| 20260510162203 | 78 | 26 | 5.0 | 7.0 | 0.00 | 0.00 | 0.00 | 54 | 1016.4 |
| 20260510161659 | 77 | 54 | 5.0 | 7.0 | 0.00 | 0.00 | 0.00 | 54 | 1016.5 |
| 20260510161155 | 76 | 49 | 8.0 | 9.0 | 0.00 | 0.00 | 0.00 | 56 | 1016.4 |
| 20260510160653 | 77 | 28 | 6.0 | 9.0 | 0.00 | 0.00 | 0.00 | 54 | 1016.4 |
| 20260510160148 | 76 | 13 | 2.0 | 7.0 | 0.00 | 0.00 | 0.00 | 55 | 1016.5 |
| 20260510155644 | 76 | 349 | 4.0 | 6.0 | 0.00 | 0.00 | 0.00 | 57 | 1016.4 |
| 20260510155140 | 77 | 64 | 0.0 | 6.0 | 0.00 | 0.00 | 0.00 | 55 | 1016.5 |
| 20260510154636 | 77 | 311 | 2.0 | 3.0 | 0.00 | 0.00 | 0.00 | 53 | 1016.5 |
| 20260510154132 | 77 | 333 | 2.0 | 5.0 | 0.00 | 0.00 | 0.00 | 52 | 1016.3 |
| 20260510153627 | 77 | 333 | 2.0 | 5.0 | 0.00 | 0.00 | 0.00 | 52 | 1016.4 |
| 20260510153124 | 78 | 60 | 0.0 | 3.0 | 0.00 | 0.00 | 0.00 | 53 | 1016.4 |
| 20260510152620 | 77 | 19 | 3.0 | 5.0 | 0.00 | 0.00 | 0.00 | 54 | 1016.2 |
| 20260510152116 | 76 | 39 | 2.0 | 3.0 | 0.00 | 0.00 | 0.00 | 52 | 1016.3 |
| 20260510151613 | 76 | 235 | 1.0 | 4.0 | 0.00 | 0.00 | 0.00 | 52 | 1016.3 |
| 20260510151111 | 76 | 260 | 3.0 | 5.0 | 0.00 | 0.00 | 0.00 | 51 | 1016.3 |
| 20260510150606 | 75 | 302 | 3.0 | 4.0 | 0.00 | 0.00 | 0.00 | 52 | 1016.2 |
| 20260510145559 | 76 | 275 | 2.0 | 4.0 | 0.00 | 0.00 | 0.00 | 51 | 1016.1 |
| 20260510145055 | 75 | 23 | 3.0 | 4.0 | 0.00 | 0.00 | 0.00 | 54 | 1016.1 |
| 20260510144551 | 75 | 340 | 0.0 | 2.0 | 0.00 | 0.00 | 0.00 | 54 | 1015.7 |
| 20260510144048 | 74 | 176 | 1.0 | 2.0 | 0.00 | 0.00 | 0.00 | 58 | 1015.8 |
| 20260510143543 | 73 | 132 | 3.0 | 3.0 | 0.00 | 0.00 | 0.00 | 56 | 1015.6 |
| 20260510143040 | 73 | 137 | 3.0 | 4.0 | 0.00 | 0.00 | 0.00 | 55 | 1015.8 |
| 20260510142536 | 74 | 151 | 1.0 | 3.0 | 0.00 | 0.00 | 0.00 | 57 | 1015.8 |
| 20260510142033 | 72 | 178 | 0.0 | 4.0 | 0.00 | 0.00 | 0.00 | 59 | 1015.6 |
| 20260510141530 | 72 | 170 | 3.0 | 3.0 | 0.00 | 0.00 | 0.00 | 57 | 1015.6 |
| 20260510141028 | 71 | 248 | 0.0 | 4.0 | 0.00 | 0.00 | 0.00 | 63 | 1015.6 |
| 20260510140524 | 71 | 155 | 2.0 | 4.0 | 0.00 | 0.00 | 0.00 | 63 | 1015.5 |
| 20260510140023 | 70 | 108 | 1.0 | 3.0 | 0.00 | 0.00 | 0.00 | 65 | 1015.5 |
| 20260510135519 | 71 | 106 | 0.0 | 2.0 | 0.00 | 0.00 | 0.00 | 65 | 1015.8 |
| 20260510135016 | 71 | 87 | 2.0 | 3.0 | 0.00 | 0.00 | 0.00 | 64 | 1015.7 |
| 20260510134513 | 70 | 33 | 1.0 | 3.0 | 0.00 | 0.00 | 0.00 | 68 | 1015.5 |
| 20260510134010 | 69 | 174 | 2.0 | 3.0 | 0.00 | 0.00 | 0.00 | 69 | 1015.3 |
| 20260510133505 | 69 | 159 | 2.0 | 3.0 | 0.00 | 0.00 | 0.00 | 70 | 1015.6 |
| 20260510133001 | 68 | 147 | 2.0 | 4.0 | 0.00 | 0.00 | 0.00 | 72 | 1015.4 |
| 20260510132459 | 68 | 143 | 3.0 | 4.0 | 0.00 | 0.00 | 0.00 | 73 | 1015.3 |
| 20260510131955 | 68 | 176 | 3.0 | 4.0 | 0.00 | 0.00 | 0.00 | 72 | 1015.5 |
| 20260510131453 | 67 | 134 | 0.0 | 3.0 | 0.00 | 0.00 | 0.00 | 75 | 1015.4 |
| 20260510130950 | 66 | 158 | 3.0 | 4.0 | 0.00 | 0.00 | 0.00 | 77 | 1015.4 |
| 20260510130446 | 66 | 147 | 2.0 | 5.0 | 0.00 | 0.00 | 0.00 | 78 | 1015.2 |
| 20260510125944 | 65 | 171 | 3.0 | 4.0 | 0.00 | 0.00 | 0.00 | 80 | 1015.3 |
| 20260510125440 | 64 | 161 | 3.0 | 4.0 | 0.00 | 0.00 | 0.00 | 80 | 1015.3 |
| 20260510124937 | 64 | 146 | 3.0 | 3.0 | 0.00 | 0.00 | 0.00 | 82 | 1015.1 |
| 20260510124433 | 64 | 140 | 2.0 | 4.0 | 0.00 | 0.00 | 0.00 | 81 | 1015.5 |
| 20260510123930 | 64 | 179 | 1.0 | 4.0 | 0.00 | 0.00 | 0.00 | 81 | 1015.4 |
| 20260510123425 | 63 | 166 | 2.0 | 3.0 | 0.00 | 0.00 | 0.00 | 81 | 1015.3 |
| 20260510122922 | 62 | 169 | 3.0 | 4.0 | 0.00 | 0.00 | 0.00 | 84 | 1015.4 |
| 20260510122417 | 62 | 171 | 3.0 | 4.0 | 0.00 | 0.00 | 0.00 | 84 | 1015.4 |
| 20260510121913 | 61 | 169 | 2.0 | 3.0 | 0.00 | 0.00 | 0.00 | 83 | 1015.2 |
| 20260510121411 | 61 | 170 | 2.0 | 3.0 | 0.00 | 0.00 | 0.00 | 82 | 1015.6 |
| 20260510120908 | 61 | 154 | 0.0 | 2.0 | 0.00 | 0.00 | 0.00 | 82 | 1015.5 |
| 20260510120405 | 60 | 313 | 0.0 | 2.0 | 0.00 | 0.00 | 0.00 | 82 | 1015.5 |
| 20260510115901 | 60 | 315 | 2.0 | 3.0 | 0.00 | 0.00 | 0.00 | 83 | 1015.6 |
| 20260510115358 | 60 | 313 | 2.0 | 3.0 | 0.00 | 0.00 | 0.00 | 82 | 1015.4 |
| 20260510114853 | 60 | 310 | 3.0 | 4.0 | 0.00 | 0.00 | 0.00 | 83 | 1015.4 |
| 20260510114346 | 60 | 0 | 1.0 | 3.0 | 0.00 | 0.00 | 0.00 | 83 | 1015.1 |
| 20260510113845 | 60 | 37 | 0.0 | 1.0 | 0.00 | 0.00 | 0.00 | 82 | 1015.0 |
| 20260510113342 | 60 | 44 | 0.0 | 1.0 | 0.00 | 0.00 | 0.00 | 82 | 1014.6 |
| 20260510112839 | 60 | 31 | 3.0 | 3.0 | 0.00 | 0.00 | 0.00 | 83 | 1015.0 |
| 20260510112336 | 60 | 352 | 1.0 | 2.0 | 0.00 | 0.00 | 0.00 | 83 | 1014.8 |
| 20260510111832 | 59 | 308 | 2.0 | 3.0 | 0.00 | 0.00 | 0.00 | 82 | 1014.5 |
| 20260510111328 | 59 | 14 | 2.0 | 3.0 | 0.00 | 0.00 | 0.00 | 83 | 1014.6 |
| 20260510110828 | 59 | 19 | 2.0 | 3.0 | 0.00 | 0.00 | 0.00 | 84 | 1014.4 |
| 20260510110326 | 59 | 18 | 2.0 | 4.0 | 0.00 | 0.00 | 0.00 | 84 | 1014.4 |
| 20260510105822 | 58 | 17 | 3.0 | 3.0 | 0.00 | 0.00 | 0.00 | 85 | 1014.2 |
| 20260510105316 | 58 | 178 | 2.0 | 2.0 | 0.00 | 0.00 | 0.00 | 84 | 1014.1 |
| 20260510104813 | 59 | 343 | 1.0 | 3.0 | 0.00 | 0.00 | 0.00 | 83 | 1014.1 |
| 20260510104310 | 59 | 25 | 3.0 | 3.0 | 0.00 | 0.00 | 0.00 | 82 | 1014.1 |
| 20260510103806 | 59 | 20 | 3.0 | 4.0 | 0.00 | 0.00 | 0.00 | 83 | 1013.8 |
| 20260510103303 | 59 | 331 | 0.0 | 2.0 | 0.00 | 0.00 | 0.00 | 82 | 1013.8 |
| 20260510102758 | 59 | 310 | 0.0 | 3.0 | 0.00 | 0.00 | 0.00 | 83 | 1013.9 |
| 20260510102254 | 58 | 266 | 1.0 | 3.0 | 0.00 | 0.00 | 0.00 | 84 | 1013.8 |
| 20260510101751 | 58 | 246 | 0.0 | 2.0 | 0.00 | 0.00 | 0.00 | 84 | 1013.6 |
| 20260510101250 | 57 | 297 | 1.0 | 3.0 | 0.00 | 0.00 | 0.00 | 85 | 1013.7 |
| 20260510100745 | 58 | 24 | 1.0 | 2.0 | 0.00 | 0.00 | 0.00 | 84 | 1013.5 |
| 20260510100244 | 58 | 3 | 0.0 | 2.0 | 0.00 | 0.00 | 0.00 | 83 | 1013.2 |
| 20260510095738 | 59 | 181 | 3.0 | 4.0 | 0.00 | 0.00 | 0.00 | 83 | 1013.5 |
| 20260510095234 | 59 | 227 | 0.0 | 2.0 | 0.00 | 0.00 | 0.00 | 83 | 1013.4 |
| 20260510094733 | 58 | 325 | 1.0 | 2.0 | 0.00 | 0.00 | 0.00 | 83 | 1013.3 |
| 20260510094229 | 59 | 343 | 1.0 | 2.0 | 0.00 | 0.00 | 0.00 | 82 | 1013.4 |
| 20260510093724 | 60 | 6 | 2.0 | 3.0 | 0.00 | 0.00 | 0.00 | 80 | 1013.4 |
| 20260510093222 | 60 | 288 | 0.0 | 2.0 | 0.00 | 0.00 | 0.00 | 80 | 1013.3 |
| 20260510092718 | 60 | 358 | 2.0 | 3.0 | 0.00 | 0.00 | 0.00 | 79 | 1013.1 |
| 20260510092214 | 61 | 231 | 0.0 | 1.0 | 0.00 | 0.00 | 0.00 | 79 | 1013.1 |
| 20260510091710 | 61 | 282 | 1.0 | 3.0 | 0.00 | 0.00 | 0.00 | 76 | 1013.0 |
| 20260510091206 | 61 | 242 | 1.0 | 2.0 | 0.00 | 0.00 | 0.00 | 77 | 1012.8 |
| 20260510090703 | 61 | 244 | 1.0 | 2.0 | 0.00 | 0.00 | 0.00 | 77 | 1012.7 |
| 20260510090200 | 61 | 256 | 1.0 | 3.0 | 0.00 | 0.00 | 0.00 | 77 | 1012.8 |
| 20260510085655 | 62 | 243 | 3.0 | 4.0 | 0.00 | 0.00 | 0.00 | 75 | 1012.6 |
| 20260510085150 | 62 | 257 | 3.0 | 4.0 | 0.00 | 0.00 | 0.00 | 75 | 1012.7 |
| 20260510084647 | 61 | 255 | 2.0 | 3.0 | 0.00 | 0.00 | 0.00 | 77 | 1012.6 |
| 20260510084143 | 60 | 213 | 0.0 | 2.0 | 0.00 | 0.00 | 0.00 | 78 | 1012.4 |
| 20260510083640 | 60 | 322 | 0.0 | 1.0 | 0.00 | 0.00 | 0.00 | 79 | 1012.3 |
| 20260510083137 | 61 | 269 | 0.0 | 2.0 | 0.00 | 0.00 | 0.00 | 78 | 1012.4 |
| 20260510082633 | 61 | 283 | 2.0 | 2.0 | 0.00 | 0.00 | 0.00 | 77 | 1012.4 |
| 20260510082129 | 61 | 305 | 2.0 | 3.0 | 0.00 | 0.00 | 0.00 | 76 | 1012.5 |
| 20260510081624 | 61 | 293 | 1.0 | 2.0 | 0.00 | 0.00 | 0.00 | 78 | 1012.5 |
| 20260510081120 | 61 | 282 | 1.0 | 2.0 | 0.00 | 0.00 | 0.00 | 78 | 1012.4 |
| 20260510080619 | 62 | 288 | 1.0 | 2.0 | 0.00 | 0.00 | 0.00 | 76 | 1012.3 |
| 20260510080116 | 62 | 283 | 0.0 | 2.0 | 0.00 | 0.00 | 0.00 | 74 | 1012.2 |
| 20260510075613 | 62 | 307 | 0.0 | 2.0 | 0.00 | 0.00 | 0.00 | 73 | 1012.2 |
| 20260510075111 | 63 | 290 | 0.0 | 2.0 | 0.00 | 0.00 | 0.00 | 72 | 1012.2 |
| 20260510074608 | 62 | 296 | 2.0 | 3.0 | 0.00 | 0.00 | 0.00 | 73 | 1012.1 |
| 20260510074103 | 62 | 297 | 0.0 | 2.0 | 0.00 | 0.00 | 0.00 | 73 | 1012.1 |
| 20260510073559 | 62 | 295 | 1.0 | 2.0 | 0.00 | 0.00 | 0.00 | 73 | 1012.2 |
| 20260510073057 | 63 | 255 | 1.0 | 2.0 | 0.00 | 0.00 | 0.00 | 73 | 1012.1 |
| 20260510072553 | 63 | 316 | 2.0 | 3.0 | 0.00 | 0.00 | 0.00 | 72 | 1012.3 |
| 20260510072049 | 64 | 291 | 1.0 | 2.0 | 0.00 | 0.00 | 0.00 | 71 | 1012.2 |
| 20260510071545 | 64 | 224 | 1.0 | 3.0 | 0.00 | 0.00 | 0.00 | 70 | 1012.1 |
| 20260510071043 | 64 | 240 | 3.0 | 4.0 | 0.00 | 0.00 | 0.00 | 69 | 1012.3 |
| 20260510070540 | 64 | 210 | 3.0 | 3.0 | 0.00 | 0.00 | 0.00 | 71 | 1012.5 |
| 20260510070037 | 64 | 233 | 0.0 | 3.0 | 0.00 | 0.00 | 0.00 | 70 | 1012.6 |
| 20260510065533 | 65 | 286 | 1.0 | 4.0 | 0.00 | 0.00 | 0.00 | 68 | 1012.5 |
| 20260510065029 | 64 | 235 | 2.0 | 3.0 | 0.00 | 0.00 | 0.00 | 68 | 1012.7 |
| 20260510064526 | 64 | 269 | 2.0 | 3.0 | 0.00 | 0.00 | 0.00 | 68 | 1012.7 |
| 20260510064023 | 64 | 226 | 1.0 | 2.0 | 0.00 | 0.00 | 0.00 | 69 | 1012.8 |
| 20260510063519 | 64 | 297 | 0.0 | 1.0 | 0.00 | 0.00 | 0.00 | 69 | 1012.5 |
| 20260510063017 | 65 | 280 | 3.0 | 4.0 | 0.00 | 0.00 | 0.00 | 68 | 1012.7 |
| 20260510062512 | 65 | 309 | 2.0 | 3.0 | 0.00 | 0.00 | 0.00 | 67 | 1012.8 |
| 20260510062008 | 65 | 289 | 2.0 | 3.0 | 0.00 | 0.00 | 0.00 | 66 | 1012.9 |
| 20260510061505 | 65 | 275 | 3.0 | 4.0 | 0.00 | 0.00 | 0.00 | 66 | 1012.5 |
| 20260510061001 | 66 | 296 | 2.0 | 3.0 | 0.00 | 0.00 | 0.00 | 66 | 1012.4 |
| 20260510060458 | 66 | 293 | 2.0 | 3.0 | 0.00 | 0.00 | 0.00 | 64 | 1012.6 |
| 20260510055954 | 66 | 290 | 1.0 | 3.0 | 0.00 | 0.00 | 0.00 | 63 | 1012.3 |
| 20260510055450 | 67 | 265 | 2.0 | 3.0 | 0.00 | 0.00 | 0.00 | 62 | 1012.3 |
| 20260510054948 | 67 | 248 | 4.0 | 4.0 | 0.00 | 0.00 | 0.00 | 61 | 1012.4 |
| 20260510054443 | 67 | 252 | 3.0 | 4.0 | 0.00 | 0.00 | 0.00 | 61 | 1012.4 |
| 20260510053938 | 67 | 262 | 1.0 | 4.0 | 0.00 | 0.00 | 0.00 | 60 | 1012.4 |
| 20260510053434 | 67 | 252 | 2.0 | 3.0 | 0.00 | 0.00 | 0.00 | 60 | 1012.3 |
| 20260510052931 | 67 | 267 | 2.0 | 4.0 | 0.00 | 0.00 | 0.00 | 61 | 1012.2 |
| 20260510052426 | 67 | 285 | 2.0 | 3.0 | 0.00 | 0.00 | 0.00 | 61 | 1012.4 |
| 20260510051923 | 67 | 285 | 1.0 | 3.0 | 0.00 | 0.00 | 0.00 | 60 | 1012.2 |
| 20260510051419 | 67 | 276 | 2.0 | 4.0 | 0.00 | 0.00 | 0.00 | 60 | 1012.1 |
| 20260510050916 | 67 | 259 | 3.0 | 4.0 | 0.00 | 0.00 | 0.00 | 59 | 1012.2 |
| 20260510050413 | 67 | 249 | 2.0 | 3.0 | 0.00 | 0.00 | 0.00 | 59 | 1012.1 |
| 20260510045910 | 68 | 255 | 2.0 | 4.0 | 0.00 | 0.00 | 0.00 | 58 | 1012.1 |
| 20260510045407 | 68 | 265 | 1.0 | 3.0 | 0.00 | 0.00 | 0.00 | 58 | 1012.0 |
| 20260510044904 | 68 | 264 | 1.0 | 3.0 | 0.00 | 0.00 | 0.00 | 57 | 1012.3 |
| 20260510044401 | 67 | 287 | 2.0 | 3.0 | 0.00 | 0.00 | 0.00 | 58 | 1012.1 |
| 20260510043857 | 68 | 255 | 2.0 | 3.0 | 0.00 | 0.00 | 0.00 | 56 | 1012.1 |
| 20260510043353 | 68 | 249 | 2.0 | 3.0 | 0.00 | 0.00 | 0.00 | 56 | 1011.9 |
| 20260510042851 | 68 | 256 | 2.0 | 5.0 | 0.00 | 0.00 | 0.00 | 55 | 1012.1 |
| 20260510042347 | 68 | 260 | 2.0 | 2.0 | 0.00 | 0.00 | 0.00 | 55 | 1012.0 |
| 20260510041843 | 68 | 226 | 2.0 | 4.0 | 0.00 | 0.00 | 0.00 | 54 | 1012.0 |
| 20260510041341 | 68 | 256 | 1.0 | 3.0 | 0.00 | 0.00 | 0.00 | 55 | 1011.9 |
| 20260510040838 | 68 | 282 | 2.0 | 3.0 | 0.00 | 0.00 | 0.00 | 53 | 1012.0 |
| 20260510040334 | 69 | 269 | 2.0 | 6.0 | 0.00 | 0.00 | 0.00 | 52 | 1012.1 |
| 20260510035830 | 69 | 255 | 3.0 | 4.0 | 0.00 | 0.00 | 0.00 | 51 | 1011.8 |
| 20260510035326 | 69 | 275 | 1.0 | 3.0 | 0.00 | 0.00 | 0.00 | 50 | 1012.0 |
| 20260510034822 | 69 | 255 | 3.0 | 4.0 | 0.00 | 0.00 | 0.00 | 50 | 1012.1 |
| 20260510034320 | 70 | 248 | 3.0 | 4.0 | 0.00 | 0.00 | 0.00 | 49 | 1012.0 |
| 20260510033816 | 70 | 253 | 4.0 | 5.0 | 0.00 | 0.00 | 0.00 | 48 | 1011.9 |
| 20260510033313 | 70 | 261 | 2.0 | 4.0 | 0.00 | 0.00 | 0.00 | 47 | 1011.9 |
| 20260510032810 | 70 | 254 | 3.0 | 4.0 | 0.00 | 0.00 | 0.00 | 47 | 1011.9 |
| 20260510032306 | 71 | 235 | 2.0 | 4.0 | 0.00 | 0.00 | 0.00 | 46 | 1011.8 |
| 20260510031802 | 71 | 255 | 3.0 | 6.0 | 0.00 | 0.00 | 0.00 | 45 | 1011.8 |
| 20260510031257 | 71 | 242 | 3.0 | 6.0 | 0.00 | 0.00 | 0.00 | 45 | 1011.9 |
| 20260510030751 | 71 | 252 | 2.0 | 5.0 | 0.00 | 0.00 | 0.00 | 45 | 1012.0 |
| 20260510030248 | 72 | 248 | 1.0 | 6.0 | 0.00 | 0.00 | 0.00 | 45 | 1011.6 |
| 20260510025745 | 72 | 254 | 4.0 | 5.0 | 0.00 | 0.00 | 0.00 | 45 | 1012.0 |
| 20260510025243 | 71 | 247 | 3.0 | 5.0 | 0.00 | 0.00 | 0.00 | 46 | 1011.8 |
| 20260510024740 | 71 | 297 | 2.0 | 4.0 | 0.00 | 0.00 | 0.00 | 47 | 1011.5 |
| 20260510024236 | 70 | 229 | 0.0 | 3.0 | 0.00 | 0.00 | 0.00 | 49 | 1011.7 |
| 20260510023732 | 70 | 322 | 0.0 | 3.0 | 0.00 | 0.00 | 0.00 | 48 | 1011.5 |
| 20260510023230 | 70 | 22 | 0.0 | 2.0 | 0.00 | 0.00 | 0.00 | 47 | 1011.4 |
| 20260510022726 | 71 | 241 | 1.0 | 2.0 | 0.00 | 0.00 | 0.00 | 46 | 1011.4 |
| 20260510022225 | 71 | 241 | 1.0 | 3.0 | 0.00 | 0.00 | 0.00 | 45 | 1011.4 |
| 20260510021720 | 72 | 272 | 2.0 | 4.0 | 0.00 | 0.00 | 0.00 | 47 | 1011.4 |
| 20260510021219 | 72 | 284 | 2.0 | 3.0 | 0.00 | 0.00 | 0.00 | 42 | 1011.4 |
| 20260510020713 | 71 | 264 | 1.0 | 2.0 | 0.00 | 0.00 | 0.00 | 43 | 1011.2 |
| 20260510020209 | 71 | 297 | 0.0 | 3.0 | 0.00 | 0.00 | 0.00 | 44 | 1011.1 |
| 20260510015705 | 71 | 254 | 1.0 | 4.0 | 0.00 | 0.00 | 0.00 | 45 | 1011.1 |
| 20260510015201 | 73 | 168 | 2.0 | 5.0 | 0.00 | 0.00 | 0.00 | 42 | 1011.1 |
| 20260510014701 | 75 | 277 | 2.0 | 3.0 | 0.00 | 0.00 | 0.00 | 37 | 1010.9 |
| 20260510014159 | 75 | 257 | 4.0 | 4.0 | 0.00 | 0.00 | 0.00 | 35 | 1011.0 |
| 20260510013654 | 74 | 250 | 2.0 | 4.0 | 0.00 | 0.00 | 0.00 | 37 | 1010.9 |
| 20260510013150 | 73 | 250 | 2.0 | 3.0 | 0.00 | 0.00 | 0.00 | 39 | 1010.8 |
| 20260510012649 | 72 | 265 | 1.0 | 2.0 | 0.00 | 0.00 | 0.00 | 39 | 1010.9 |
| 20260510012146 | 72 | 323 | 1.0 | 2.0 | 0.00 | 0.00 | 0.00 | 39 | 1010.7 |
| 20260510011641 | 73 | 299 | 0.0 | 2.0 | 0.00 | 0.00 | 0.00 | 40 | 1010.8 |
| 20260510011137 | 75 | 267 | 2.0 | 2.0 | 0.00 | 0.00 | 0.00 | 39 | 1010.7 |
| 20260510010633 | 75 | 278 | 2.0 | 3.0 | 0.00 | 0.00 | 0.00 | 39 | 1010.5 |
| 20260510010130 | 75 | 281 | 2.0 | 2.0 | 0.00 | 0.00 | 0.00 | 39 | 1010.3 |
| 20260510005625 | 75 | 290 | 2.0 | 2.0 | 0.00 | 0.00 | 0.00 | 39 | 1010.3 |
| 20260510005123 | 75 | 276 | 1.0 | 2.0 | 0.00 | 0.00 | 0.00 | 38 | 1010.3 |
| 20260510004621 | 75 | 269 | 1.0 | 2.0 | 0.00 | 0.00 | 0.00 | 36 | 1010.2 |
| 20260510004119 | 77 | 306 | 0.0 | 1.0 | 0.00 | 0.00 | 0.00 | 34 | 1010.2 |
| 20260510003616 | 78 | 297 | 0.0 | 1.0 | 0.00 | 0.00 | 0.00 | 34 | 1010.0 |
| 20260510003112 | 78 | 255 | 0.0 | 1.0 | 0.00 | 0.00 | 0.00 | 32 | 1010.1 |
| 20260510002606 | 79 | 284 | 0.0 | 1.0 | 0.00 | 0.00 | 0.00 | 31 | 1010.0 |
| 20260510002103 | 79 | 265 | 0.0 | 1.0 | 0.00 | 0.00 | 0.00 | 31 | 1010.1 |
| 20260510001601 | 79 | 255 | 0.0 | 0.0 | 0.00 | 0.00 | 0.00 | 31 | 1009.9 |
| 20260510001100 | 80 | 237 | 0.0 | 2.0 | 0.00 | 0.00 | 0.00 | 30 | 1010.0 |
| 20260510000559 | 80 | 257 | 0.0 | 2.0 | 0.00 | 0.00 | 0.00 | 30 | 1009.8 |
| 20260510000056 | 81 | 297 | 0.0 | 1.0 | 0.00 | 0.00 | 0.00 | 31 | 1009.9 |
| 20260509235553 | 82 | 331 | 0.0 | 2.0 | 0.00 | 0.00 | 0.00 | 34 | 1009.7 |
| 20260509235050 | 81 | 293 | 2.0 | 2.0 | 0.00 | 0.00 | 0.00 | 37 | 1009.6 |
| 20260509234546 | 82 | 154 | 0.0 | 2.0 | 0.00 | 0.00 | 0.00 | 27 | 1009.8 |
| 20260509234044 | 82 | 275 | 0.0 | 1.0 | 0.00 | 0.00 | 0.00 | 31 | 1009.7 |
| 20260509233541 | 82 | 25 | 0.0 | 2.0 | 0.00 | 0.00 | 0.00 | 26 | 1009.7 |
| 20260509233038 | 82 | 122 | 3.0 | 5.0 | 0.00 | 0.00 | 0.00 | 26 | 1009.6 |
| 20260509232535 | 82 | 195 | 2.0 | 4.0 | 0.00 | 0.00 | 0.00 | 26 | 1009.7 |
| 20260509232032 | 83 | 185 | 2.0 | 3.0 | 0.00 | 0.00 | 0.00 | 26 | 1009.4 |
| 20260509231528 | 84 | 224 | 2.0 | 4.0 | 0.00 | 0.00 | 0.00 | 28 | 1009.7 |
| 20260509231026 | 84 | 246 | 3.0 | 4.0 | 0.00 | 0.00 | 0.00 | 28 | 1009.6 |
| 20260509230522 | 84 | 269 | 0.0 | 5.0 | 0.00 | 0.00 | 0.00 | 29 | 1009.5 |
| 20260509230019 | 83 | 229 | 0.0 | 2.0 | 0.00 | 0.00 | 0.00 | 31 | 1009.6 |
| 20260509225515 | 84 | 324 | 1.0 | 3.0 | 0.00 | 0.00 | 0.00 | 26 | 1009.6 |
| 20260509225010 | 84 | 346 | 2.0 | 4.0 | 0.00 | 0.00 | 0.00 | 26 | 1009.6 |
| 20260509224507 | 82 | 327 | 0.0 | 3.0 | 0.00 | 0.00 | 0.00 | 27 | 1009.4 |
| 20260509224004 | 82 | 201 | 2.0 | 5.0 | 0.00 | 0.00 | 0.00 | 27 | 1009.5 |
| 20260509223500 | 84 | 196 | 2.0 | 3.0 | 0.00 | 0.00 | 0.00 | 28 | 1009.7 |
| 20260509222958 | 82 | 195 | 1.0 | 3.0 | 0.00 | 0.00 | 0.00 | 27 | 1009.7 |
| 20260509222453 | 82 | 110 | 2.0 | 4.0 | 0.00 | 0.00 | 0.00 | 29 | 1009.4 |
| 20260509221949 | 82 | 316 | 1.0 | 3.0 | 0.00 | 0.00 | 0.00 | 28 | 1009.6 |
| 20260509221445 | 82 | 79 | 2.0 | 5.0 | 0.00 | 0.00 | 0.00 | 30 | 1009.6 |
| 20260509220941 | 82 | 53 | 3.0 | 4.0 | 0.00 | 0.00 | 0.00 | 29 | 1009.8 |
| 20260509220438 | 82 | 149 | 2.0 | 3.0 | 0.00 | 0.00 | 0.00 | 29 | 1009.7 |
| 20260509215934 | 82 | 135 | 0.0 | 2.0 | 0.00 | 0.00 | 0.00 | 28 | 1009.7 |
| 20260509215429 | 82 | 87 | 1.0 | 2.0 | 0.00 | 0.00 | 0.00 | 29 | 1009.5 |
| 20260509214927 | 81 | 55 | 4.0 | 5.0 | 0.00 | 0.00 | 0.00 | 30 | 1009.7 |
| 20260509214424 | 81 | 124 | 4.0 | 6.0 | 0.00 | 0.00 | 0.00 | 27 | 1009.6 |
| 20260509213921 | 83 | 155 | 3.0 | 5.0 | 0.00 | 0.00 | 0.00 | 27 | 1009.7 |
| 20260509213416 | 82 | 247 | 3.0 | 6.0 | 0.00 | 0.00 | 0.00 | 28 | 1009.7 |
| 20260509212914 | 82 | 243 | 3.0 | 6.0 | 0.00 | 0.00 | 0.00 | 26 | 1009.6 |
| 20260509212412 | 81 | 235 | 0.0 | 3.0 | 0.00 | 0.00 | 0.00 | 29 | 1009.7 |
| 20260509211908 | 82 | 189 | 5.0 | 8.0 | 0.00 | 0.00 | 0.00 | 30 | 1009.7 |
| 20260509211403 | 83 | 345 | 5.0 | 7.0 | 0.00 | 0.00 | 0.00 | 29 | 1009.6 |
| 20260509210900 | 84 | 288 | 4.0 | 6.0 | 0.00 | 0.00 | 0.00 | 30 | 1009.8 |
| 20260509210357 | 83 | 280 | 4.0 | 8.0 | 0.00 | 0.00 | 0.00 | 30 | 1009.8 |
| 20260509205852 | 83 | 294 | 3.0 | 7.0 | 0.00 | 0.00 | 0.00 | 31 | 1009.7 |
| 20260509205347 | 82 | 166 | 2.0 | 3.0 | 0.00 | 0.00 | 0.00 | 33 | 1009.6 |
| 20260509204844 | 83 | 163 | 3.0 | 5.0 | 0.00 | 0.00 | 0.00 | 31 | 1009.7 |
| 20260509204340 | 83 | 302 | 4.0 | 6.0 | 0.00 | 0.00 | 0.00 | 32 | 1010.0 |
| 20260509203836 | 83 | 307 | 6.0 | 9.0 | 0.00 | 0.00 | 0.00 | 35 | 1009.7 |
| 20260509203333 | 83 | 320 | 4.0 | 7.0 | 0.00 | 0.00 | 0.00 | 33 | 1009.8 |
| 20260509202829 | 82 | 293 | 3.0 | 5.0 | 0.00 | 0.00 | 0.00 | 31 | 1009.8 |
| 20260509202326 | 81 | 33 | 2.0 | 5.0 | 0.00 | 0.00 | 0.00 | 31 | 1009.9 |
| 20260509201825 | 81 | 128 | 3.0 | 8.0 | 0.00 | 0.00 | 0.00 | 30 | 1009.9 |
| 20260509201322 | 81 | 313 | 2.0 | 6.0 | 0.00 | 0.00 | 0.00 | 33 | 1010.1 |
| 20260509200818 | 82 | 40 | 2.0 | 4.0 | 0.00 | 0.00 | 0.00 | 33 | 1010.1 |
| 20260509200314 | 81 | 349 | 3.0 | 5.0 | 0.00 | 0.00 | 0.00 | 34 | 1010.1 |
| 20260509195811 | 81 | 71 | 2.0 | 5.0 | 0.00 | 0.00 | 0.00 | 33 | 1009.9 |
| 20260509195306 | 82 | 348 | 4.0 | 5.0 | 0.00 | 0.00 | 0.00 | 38 | 1010.1 |
| 20260509194805 | 82 | 326 | 3.0 | 5.0 | 0.00 | 0.00 | 0.00 | 35 | 1010.3 |
| 20260509194301 | 80 | 250 | 3.0 | 7.0 | 0.00 | 0.00 | 0.00 | 34 | 1010.2 |
| 20260509193758 | 81 | 268 | 4.0 | 6.0 | 0.00 | 0.00 | 0.00 | 36 | 1010.1 |
| 20260509193258 | 82 | 344 | 4.0 | 6.0 | 0.00 | 0.00 | 0.00 | 35 | 1010.5 |
| 20260509192754 | 80 | 310 | 5.0 | 7.0 | 0.00 | 0.00 | 0.00 | 36 | 1010.3 |
| 20260509192250 | 80 | 261 | 7.0 | 9.0 | 0.00 | 0.00 | 0.00 | 37 | 1010.5 |
| 20260509191745 | 81 | 321 | 3.0 | 4.0 | 0.00 | 0.00 | 0.00 | 38 | 1010.6 |
| 20260509191242 | 81 | 350 | 4.0 | 5.0 | 0.00 | 0.00 | 0.00 | 37 | 1010.5 |
| 20260509190738 | 81 | 33 | 2.0 | 6.0 | 0.00 | 0.00 | 0.00 | 36 | 1010.8 |